Location: B?dimalle
(17.1788°N, 80.5377°E)
Time: 05:18:45
(UTC+00:00)

Vanguard 1 - Pass Details

Date: 22 February 2026
Orbit: 653 x 3818 km, 34.2° (Epoch: 14 March)

Event Time Altitude Azimuth Distance (km) Brightness Sun altitude
Rises 16:59:07 0° 293° (WNW) 7,315 14.9 -61.8°
Reaches altitude 10° 17:03:59 10° 288° (WNW) 6,557 14.5 -63.0°
Enters shadow 17:21:30 44° 241° (WSW) 4,650 13.3 -67.1°
